Theta_e
303 303 304 304 304 304 305 306 306 306 305 305 305 306 306 307 308 308 308 308 308 308 309 310 310 310 310 310 309 309 309 310 310 310 309 308 307 307 307 309 309 309 309 309 309 310 312 314 313 314 315 313 312 310 310 310 308 311 313 310 309 310 309 306 307 306 305 306 305 304 305 305 305 306 306 306 306 305 305 305 305 305 304 304 303 303 303 302
303 304 304 304 304 305 305 305 305 305 305 305 306 306 307 307 308 308 308 308 308 308 309 310 311 311 311 311 311 311 310 310 311 309 309 308 307 307 308 309 309 309 309 309 309 309 311 312 311 312 313 310 309 309 309 309 307 310 313 311 309 309 307 304 305 304 304 305 304 304 305 305 305 305 306 306 305 305 305 305 305 305 304 304 303 303 303 302
303 304 304 304 304 305 305 305 305 305 305 306 306 306 307 307 308 308 308 309 309 309 309 310 310 310 310 311 311 312 312 311 311 310 309 309 308 308 309 309 309 309 309 309 309 309 310 310 310 310 310 308 307 308 308 308 306 305 311 314 308 306 305 304 304 304 305 305 304 304 305 305 305 305 306 306 305 304 305 305 305 304 304 304 303 303 302 302
303 304 304 304 305 305 305 305 305 306 306 306 306 307 307 307 307 307 308 309 309 309 309 309 309 309 309 309 310 310 312 312 310 308 309 309 310 309 309 310 310 310 310 310 309 310 309 309 310 310 309 307 306 307 306 306 307 304 308 313 306 303 306 305 305 305 305 305 305 304 304 305 305 305 306 305 306 306 305 305 305 304 304 304 303 303 303 303
303 304 304 304 304 305 305 306 306 306 306 307 307 307 307 307 307 307 308 309 309 309 310 310 309 309 308 308 309 308 312 314 309 308 310 310 310 310 310 311 311 310 310 310 310 310 310 309 310 310 308 306 306 308 305 304 306 304 304 306 304 304 306 305 305 305 305 305 305 305 305 305 305 305 305 304 306 307 305 304 305 304 304 304 303 303 303 303
304 304 304 305 305 305 306 306 307 307 307 307 307 307 307 308 307 307 308 309 309 309 310 310 310 310 309 309 309 308 311 312 309 308 310 310 310 310 310 311 311 311 310 310 311 310 310 310 310 309 306 304 305 307 306 304 305 305 304 303 303 304 305 305 305 306 306 305 305 305 305 305 305 305 305 304 305 306 304 304 305 305 305 304 303 304 303 303
304 304 305 305 305 306 306 306 307 307 308 307 308 308 308 308 308 308 308 308 309 309 310 310 311 311 310 311 311 310 310 309 308 308 309 310 310 310 310 311 311 310 311 311 310 310 310 310 310 306 305 305 304 304 304 304 304 306 305 303 303 304 304 305 305 305 305 305 305 305 305 304 305 305 305 305 304 304 304 305 305 305 305 304 304 304 303 303
304 304 305 305 306 306 306 306 307 307 307 308 308 308 308 308 308 308 308 308 308 309 309 310 310 311 311 311 312 312 309 308 308 309 309 310 310 310 310 311 311 311 311 311 310 310 310 310 309 307 306 305 305 304 304 305 304 305 305 303 303 304 304 304 304 305 305 306 306 306 305 304 305 305 305 305 305 305 304 305 306 305 305 304 304 304 303 303
305 305 305 306 306 306 306 306 306 307 307 308 308 308 309 308 308 309 309 309 309 309 309 309 310 310 311 311 313 312 309 307 308 309 309 310 310 310 311 311 311 311 311 311 310 311 310 310 309 308 307 305 306 304 305 308 306 304 304 304 304 305 304 304 304 305 306 306 306 305 304 304 305 305 306 305 305 305 305 305 306 305 305 304 304 304 304 303
305 305 306 306 306 306 306 306 307 307 307 308 308 309 309 309 309 309 309 309 309 310 310 310 310 311 311 312 313 311 308 308 308 309 309 309 310 310 311 311 310 311 311 311 310 310 310 310 309 309 307 306 305 304 305 307 306 304 304 304 304 304 304 304 305 306 306 305 305 306 305 304 304 306 307 306 304 304 305 306 306 306 305 304 304 304 303 303
306 306 306 306 306 306 306 307 307 307 307 307 308 309 309 309 310 309 308 309 309 310 310 310 310 312 313 313 312 309 308 309 309 309 309 309 310 311 311 311 311 311 311 310 310 310 309 309 309 309 308 307 306 305 304 305 305 304 305 305 304 304 304 304 305 305 305 305 305 305 304 304 305 307 308 305 304 304 305 306 306 306 305 304 304 304 303 303
306 306 306 306 306 306 306 306 306 307 307 307 309 309 308 309 310 310 309 308 309 309 309 310 311 312 313 313 310 308 309 309 309 309 310 310 310 310 310 310 310 310 311 310 310 309 309 309 310 311 309 307 306 306 305 305 305 305 305 306 304 306 306 304 305 305 305 305 304 304 305 308 308 308 307 304 303 304 305 305 305 306 305 304 304 303 303 303
305 306 306 306 306 306 306 306 306 306 306 307 309 309 309 309 309 310 311 310 310 311 311 311 311 312 313 312 308 309 310 309 309 309 310 310 310 310 309 309 309 309 310 310 309 309 309 310 310 310 308 307 306 306 306 305 305 305 305 305 308 313 311 304 304 304 304 305 304 304 309 315 313 308 306 305 304 303 305 305 305 305 304 304 304 304 303 303
305 305 306 306 307 307 306 306 306 306 307 308 309 310 310 310 309 311 312 312 312 312 312 312 312 313 313 311 309 310 310 309 310 309 310 310 310 310 310 309 309 309 309 309 310 309 309 310 311 309 307 307 305 305 307 305 308 308 305 308 314 316 311 305 304 304 305 306 304 304 311 317 313 308 306 305 304 303 304 305 305 305 304 304 304 303 304 303
305 305 306 307 308 308 307 306 306 306 307 308 310 311 311 311 310 311 312 312 313 313 313 313 313 313 312 310 310 310 310 311 311 310 310 310 310 311 311 311 310 310 311 311 311 310 310 311 311 309 306 307 307 310 311 310 313 311 308 313 316 314 311 308 305 303 305 305 304 306 312 316 311 308 306 305 305 304 303 305 305 305 304 304 304 304 304 303
305 306 308 308 308 308 307 306 306 307 308 309 309 310 311 312 311 312 313 313 313 313 313 314 314 314 314 312 311 310 311 311 311 312 312 311 311 311 311 312 311 311 311 311 311 311 311 311 310 308 307 308 309 316 319 318 323 319 312 312 313 312 311 310 306 303 303 304 303 305 309 312 308 306 306 305 305 305 304 305 305 305 305 304 304 304 304 304
306 307 309 309 309 308 308 308 308 309 309 310 310 310 311 311 312 313 314 314 315 314 314 313 313 315 314 312 311 311 310 311 311 312 313 313 313 312 312 312 312 312 312 312 312 311 311 311 310 307 306 305 305 315 321 318 325 324 318 316 312 311 310 310 309 304 303 304 305 305 305 310 308 304 305 306 305 305 304 305 305 304 305 305 304 304 304 304
306 307 309 309 310 310 309 310 310 310 311 311 311 311 311 311 312 313 312 313 314 314 315 314 315 319 315 311 311 310 310 311 311 312 313 314 314 313 312 312 313 313 312 312 310 311 310 307 308 309 307 304 303 312 318 312 315 317 315 317 315 313 311 311 310 305 304 306 307 306 306 309 308 304 304 306 305 305 305 304 305 305 305 304 304 304 304 303
305 308 309 309 310 310 309 310 310 311 311 312 312 312 313 312 312 313 312 313 313 313 314 312 314 317 314 310 311 311 310 311 311 312 313 313 314 314 313 313 314 313 312 315 312 308 308 308 312 313 309 306 305 307 311 308 309 311 309 310 311 313 313 310 307 305 303 306 310 309 307 308 309 307 305 306 305 305 305 304 304 305 305 304 304 304 303 303
306 308 309 310 309 309 309 309 310 311 312 312 313 313 314 313 313 313 312 313 311 310 311 310 310 311 311 310 312 311 311 311 311 312 312 314 314 313 313 312 313 312 311 314 313 306 307 311 312 310 306 306 306 304 305 305 306 308 308 310 310 311 315 312 307 304 302 307 312 310 308 309 309 308 304 305 305 304 305 304 304 305 304 304 304 303 303 303
306 308 310 310 310 310 310 311 312 312 313 313 313 314 315 315 315 313 310 310 310 310 310 310 310 310 310 311 311 311 311 311 311 312 312 312 313 313 312 311 314 316 309 307 310 306 308 311 308 306 305 303 303 303 304 305 306 308 309 312 313 311 311 309 305 304 302 306 312 310 309 309 307 307 304 303 303 303 305 305 304 305 305 305 304 303 304 303
306 308 311 311 311 312 312 312 313 312 313 314 314 314 314 314 315 313 312 311 310 310 311 310 311 311 311 311 311 311 312 311 312 312 311 312 312 312 310 308 311 312 306 308 315 314 312 310 306 305 303 302 304 304 306 308 309 312 312 313 314 310 309 309 307 306 302 305 315 312 308 309 308 307 304 302 303 304 305 305 305 306 305 305 304 304 304 304
306 308 310 311 311 311 311 310 309 310 311 311 312 313 313 313 313 313 313 313 310 310 311 311 311 311 311 312 311 311 311 310 310 311 312 312 311 311 309 307 311 310 307 313 321 320 316 308 305 303 301 305 310 307 308 313 312 310 312 313 312 307 307 311 311 307 303 304 311 309 308 313 314 312 306 302 304 304 304 305 305 305 305 305 304 304 304 303
306 307 309 311 311 310 310 309 307 308 308 308 309 310 311 313 313 314 312 312 311 310 311 311 311 311 311 311 311 311 310 309 309 309 311 312 311 311 308 307 314 313 307 309 313 314 312 305 303 303 304 308 311 309 308 314 315 310 310 310 309 306 304 306 307 305 306 306 305 307 316 320 317 318 314 306 304 304 304 305 305 305 305 305 304 304 304 304
307 307 308 310 311 310 309 308 308 308 308 308 308 307 309 309 311 312 312 315 314 310 312 311 310 311 310 311 312 311 311 310 309 309 310 311 311 311 308 307 313 315 310 309 310 310 308 304 303 306 310 311 312 311 306 308 316 313 308 306 304 304 303 305 305 306 315 316 305 306 321 326 321 319 316 311 308 305 304 304 305 306 305 305 305 304 304 304
307 307 307 308 310 310 310 310 310 309 309 309 307 307 307 306 309 310 315 326 321 309 311 313 310 312 311 310 312 312 314 313 309 309 310 310 310 311 312 310 309 312 309 307 309 308 306 303 303 307 314 315 313 311 305 305 315 314 306 304 304 303 304 305 306 308 316 316 306 306 315 321 324 319 314 313 311 308 306 305 305 306 306 305 305 305 304 304
308 308 307 308 308 309 309 309 309 309 309 308 307 307 306 306 308 307 316 331 321 307 310 313 311 312 312 310 311 313 315 313 310 310 309 310 310 310 315 313 311 310 304 306 314 309 305 307 307 308 314 317 314 310 305 304 311 311 306 305 305 304 305 306 306 308 310 311 311 313 310 311 322 323 317 312 309 312 314 311 307 306 307 306 305 305 304 304
308 308 308 309 308 308 308 308 308 308 307 307 307 307 306 307 307 309 320 324 312 307 310 311 311 312 312 311 310 311 312 311 311 311 308 310 310 309 312 311 310 309 301 311 323 308 303 310 308 308 313 314 311 306 304 304 307 307 304 303 303 304 305 304 307 311 308 309 318 319 309 310 324 326 318 312 308 312 319 317 309 305 306 305 304 305 304 304
308 308 309 309 308 309 309 308 308 307 307 307 306 306 307 307 306 315 328 320 307 309 310 310 312 311 310 311 310 309 309 310 311 310 308 309 310 310 312 308 306 307 304 311 319 308 303 306 303 305 310 310 308 304 301 302 305 304 301 302 304 305 306 305 307 311 311 314 319 315 308 311 326 329 320 312 309 314 319 316 308 304 305 305 304 305 304 304
308 308 308 308 309 310 309 309 309 308 308 307 306 308 308 310 319 325 324 314 308 309 309 311 311 308 311 315 313 309 308 308 309 309 308 307 308 308 309 308 306 310 311 310 312 308 302 302 302 304 305 304 304 303 300 299 302 301 302 306 308 309 308 307 307 309 315 323 318 310 307 309 320 330 323 312 312 316 316 312 306 304 306 305 305 305 304 305
308 308 308 309 309 309 310 310 309 308 308 307 306 309 309 317 334 336 315 307 310 310 310 312 309 308 313 316 313 309 310 309 306 310 313 308 306 306 307 310 310 316 323 318 313 309 305 306 306 303 303 302 302 304 301 299 300 302 306 308 310 315 313 312 316 316 320 326 317 309 307 306 314 326 321 314 314 312 309 309 307 305 306 305 305 306 305 305
308 308 308 309 308 309 311 309 310 309 306 308 307 309 317 321 326 324 312 309 311 312 312 311 308 309 312 313 311 308 311 311 307 309 313 310 306 304 305 308 309 316 324 319 315 314 310 308 306 304 303 301 303 309 308 304 303 306 311 312 317 328 325 321 329 326 324 323 312 306 306 308 315 321 318 316 313 308 305 307 307 305 306 306 305 305 305 305
308 308 308 309 308 309 310 309 310 308 306 310 306 311 332 334 316 310 311 312 310 307 308 308 308 309 311 315 314 308 309 310 309 307 306 308 311 307 304 302 302 312 317 314 317 320 317 312 307 307 306 301 303 312 314 312 310 310 311 313 321 330 328 328 329 322 323 323 311 303 306 314 318 316 315 314 309 306 305 305 306 305 305 306 305 306 305 305
307 308 307 308 309 308 310 310 309 308 307 309 308 315 331 328 312 307 310 311 307 305 305 305 310 311 311 314 310 307 311 310 308 309 309 314 319 315 311 305 302 308 314 314 314 315 320 318 310 307 306 303 303 305 306 307 309 310 306 309 319 320 319 324 326 323 322 321 314 307 310 320 320 314 311 308 304 305 306 305 305 305 305 305 305 305 305 305
307 308 307 308 309 308 311 310 308 309 306 308 319 330 329 318 313 313 313 309 307 309 306 305 314 321 316 315 309 305 311 310 308 312 315 317 315 310 310 307 303 304 311 315 310 308 317 317 308 304 302 301 303 301 300 303 309 309 306 313 317 313 315 316 314 316 314 314 319 315 313 320 316 309 306 303 303 304 304 305 305 305 306 306 305 305 306 306
307 308 307 308 309 308 311 309 309 309 306 315 332 333 323 316 313 315 313 307 306 310 309 309 318 324 319 316 315 311 308 307 310 314 313 309 307 306 306 305 302 301 307 313 310 309 316 316 309 305 303 300 301 300 298 303 308 310 312 315 308 304 312 315 308 308 307 312 322 317 315 321 315 311 308 304 305 305 304 304 305 306 306 305 306 306 306 306
307 308 307 308 308 309 310 308 309 309 307 321 337 322 309 307 306 308 308 304 304 308 312 316 314 315 320 319 318 318 312 307 311 316 313 308 307 307 306 305 300 299 302 306 308 306 310 316 311 306 306 303 299 300 301 299 303 313 317 310 303 302 309 312 312 317 316 319 324 317 316 320 318 318 314 306 307 310 307 304 303 305 306 305 306 307 306 307
307 308 307 308 308 309 310 309 310 311 310 320 328 315 305 304 302 302 303 302 305 309 316 321 312 308 318 321 316 314 312 311 314 317 313 310 309 306 305 307 302 299 298 301 307 304 304 315 315 306 306 305 300 302 308 304 300 306 308 303 305 311 313 314 315 318 319 319 322 319 315 315 317 323 318 308 310 313 311 308 304 305 306 306 307 307 306 307
308 309 307 307 308 308 310 310 309 311 316 322 325 314 305 305 301 300 303 303 305 310 314 317 311 307 312 316 316 312 310 312 314 314 312 311 309 305 303 304 302 300 299 300 306 304 302 313 317 308 303 303 304 306 312 313 304 303 305 304 308 312 310 311 310 310 315 317 319 320 321 322 323 324 319 312 314 316 316 315 308 305 307 307 307 307 306 306
308 309 308 307 309 309 310 310 309 314 321 319 317 311 303 303 302 299 302 303 303 308 313 313 312 312 312 311 310 309 310 312 311 311 311 309 308 306 302 301 301 301 299 299 303 303 303 309 316 315 306 305 310 308 309 312 307 308 312 311 311 308 304 307 307 306 311 317 317 317 322 328 323 317 315 316 317 314 312 312 308 306 307 307 306 307 306 307
309 310 308 306 309 309 309 311 309 310 315 310 306 305 301 301 302 299 300 302 301 303 307 310 312 314 314 312 309 307 310 313 311 311 311 307 308 308 302 298 299 299 300 303 304 303 305 308 312 318 315 312 312 303 300 302 302 305 309 310 312 311 309 314 313 307 306 311 315 314 316 322 318 310 311 312 309 306 305 307 307 306 307 306 306 307 306 306
308 310 308 307 309 308 310 313 303 301 311 309 303 303 302 301 301 300 299 301 301 301 302 306 308 311 313 311 310 309 310 313 312 311 310 308 308 308 302 297 298 298 301 305 304 300 303 307 311 315 312 308 305 298 296 297 297 299 302 304 309 310 313 319 317 312 308 305 308 308 310 320 317 305 304 305 303 303 305 305 305 306 306 306 307 307 306 306
307 308 308 307 309 308 310 313 306 302 305 302 298 299 301 300 300 300 300 300 302 302 304 306 306 308 308 305 307 309 308 311 312 309 310 309 306 303 299 297 298 299 301 305 303 300 302 307 311 316 314 307 302 297 295 294 296 301 303 301 305 308 312 315 314 313 310 306 307 308 311 322 318 302 300 304 303 303 305 304 304 306 306 306 307 306 306 307
307 307 307 308 309 310 312 315 316 311 303 298 299 300 300 299 299 300 301 302 302 302 306 308 304 304 303 300 306 307 304 309 312 307 307 309 304 299 297 297 298 299 301 305 304 301 304 308 311 318 323 320 315 311 306 302 300 305 307 303 304 306 307 309 308 307 309 309 311 313 317 326 320 306 303 304 303 303 305 305 305 305 305 306 307 307 307 307
308 309 308 308 308 309 310 311 316 316 306 303 304 303 302 301 299 300 301 301 300 301 305 307 302 302 301 299 304 304 299 304 310 307 305 306 303 298 297 297 298 299 300 301 300 300 304 308 310 316 321 322 324 323 318 312 307 308 308 303 304 306 306 308 307 307 311 310 307 312 320 321 316 312 310 307 305 305 306 306 306 305 306 306 306 307 307 306
308 310 309 309 308 308 308 305 307 312 310 310 308 303 304 305 301 299 300 300 300 299 302 303 300 302 303 302 308 310 303 301 304 306 308 308 304 299 296 297 297 298 299 297 297 300 304 305 306 313 318 318 319 319 312 308 307 308 307 304 305 305 305 307 309 310 312 310 306 309 313 313 311 311 310 309 309 307 305 305 305 306 306 307 307 307 307 306
307 309 308 309 309 308 307 304 304 307 310 313 311 305 307 308 302 299 299 299 300 299 300 301 299 304 308 308 312 315 308 303 304 305 308 308 303 298 296 298 298 297 297 297 296 300 306 307 306 309 312 311 311 310 306 304 305 306 306 306 306 305 304 306 309 309 309 309 311 311 308 308 310 309 308 308 308 306 304 303 304 305 306 307 307 307 306 306
307 307 305 307 310 309 308 307 305 304 304 307 308 305 309 310 306 306 303 299 299 299 301 304 303 306 310 309 311 313 308 308 309 307 306 305 302 300 299 298 297 297 297 296 296 300 306 309 306 304 307 307 306 305 304 303 304 304 304 304 305 305 305 305 305 306 307 309 311 312 309 308 308 307 307 307 305 304 304 303 304 305 306 307 307 306 306 306
306 307 305 306 308 307 307 306 304 303 303 305 308 307 311 314 311 307 301 299 301 299 300 307 310 308 305 304 311 317 313 311 311 309 307 305 303 304 305 303 299 296 297 297 296 297 303 309 307 303 305 307 305 304 303 302 303 303 303 303 303 303 304 304 304 304 305 306 307 307 307 307 306 305 305 304 304 304 303 303 304 305 307 307 307 306 306 306
306 307 305 305 306 304 305 304 303 307 307 305 309 308 308 314 315 306 300 303 309 303 299 308 314 306 300 302 312 319 314 311 311 310 308 307 305 305 307 308 303 297 296 298 297 295 300 308 307 302 305 309 307 304 304 303 303 304 303 302 302 302 302 302 302 302 303 304 304 304 304 303 303 303 303 303 304 303 302 304 306 307 307 307 306 306 306 307
306 307 306 307 306 303 304 304 303 309 311 307 309 309 307 313 313 307 303 303 306 306 303 307 310 304 300 303 311 313 309 307 308 307 305 306 307 306 304 304 304 302 300 299 298 297 300 306 305 301 307 313 308 306 307 305 304 306 308 307 303 302 303 302 301 302 303 304 303 303 304 305 304 303 303 303 303 302 303 305 306 307 307 306 305 306 306 307
305 306 306 309 310 304 302 303 302 307 312 309 307 306 307 308 305 304 307 304 301 303 304 302 304 307 308 307 308 308 306 305 305 304 303 303 303 303 302 301 302 304 303 299 298 299 301 305 306 303 309 315 310 306 306 307 311 318 318 315 309 302 302 303 302 302 302 303 305 306 308 307 305 303 305 306 304 303 304 306 307 306 306 306 306 306 307 307
Wind_Speed
16 16 16 16 16 17 16 16 15 12 10 9 9 10 10 9 8 8 7 5 4 4 7 12 17 19 22 23 24 23 22 18 16 21 24 23 15 9 11 10 11 12 11 9 8 10 14 16 15 15 17 18 18 15 14 13 11 9 5 5 5 3 2 2 5 5 5 4 2 3 6 5 2 1 3 5 5 7 5 3 2 2 2 4 5 7 9 11
17 17 17 17 16 16 15 14 11 9 8 8 9 10 13 14 12 9 5 2 1 1 4 8 13 14 15 18 19 22 24 20 22 31 27 17 11 9 11 9 9 10 12 14 13 13 13 14 11 10 15 19 16 13 13 12 13 9 3 5 3 4 2 1 5 6 5 7 6 7 6 5 2 1 3 4 3 5 3 1 1 0 1 3 6 7 9 11
16 17 17 16 15 14 12 10 9 8 7 7 8 10 14 16 15 14 12 9 4 1 5 7 7 5 7 9 11 16 20 19 23 30 23 14 12 10 10 8 7 7 9 14 17 17 15 17 15 14 22 22 17 18 18 13 11 8 4 5 1 6 5 4 6 8 9 11 10 9 6 5 4 2 4 6 4 2 1 1 1 2 4 5 7 8 9 12
16 16 15 14 13 12 10 10 9 8 8 7 8 9 10 11 11 12 13 13 12 11 4 5 9 6 3 1 2 6 13 19 23 26 18 15 13 10 9 7 7 6 5 10 14 15 14 17 20 22 27 19 17 22 18 12 9 5 4 5 5 8 6 5 8 9 11 10 8 8 6 5 4 4 3 9 5 1 2 1 1 2 4 6 8 10 12 14
16 15 15 13 12 11 11 11 11 10 10 9 8 6 6 7 7 8 10 13 18 20 18 10 3 8 9 7 6 6 5 8 15 20 16 16 15 12 10 7 7 8 7 8 11 12 11 14 21 24 21 11 13 17 12 12 13 7 5 6 7 8 5 5 8 8 8 8 7 7 4 2 1 3 3 6 4 2 2 0 2 2 3 5 8 11 14 15
16 15 14 13 12 12 12 12 12 13 14 13 11 10 10 11 10 8 8 11 17 22 24 23 17 8 3 3 5 3 5 5 9 17 16 15 16 14 11 8 8 8 7 6 8 10 10 14 21 20 14 9 12 10 7 9 10 6 5 7 7 7 8 7 7 7 6 8 7 4 2 1 3 2 1 1 1 1 1 2 2 2 2 4 7 11 13 15
16 15 14 13 13 12 12 11 12 13 14 14 13 13 15 15 14 12 8 7 8 14 18 22 26 24 21 18 14 16 22 14 11 16 16 15 15 15 13 9 7 6 6 10 13 16 18 23 27 22 13 9 11 11 14 18 15 10 4 5 8 10 11 8 7 8 7 8 5 2 1 1 3 2 1 3 2 1 0 2 2 2 2 4 6 10 13 14
15 14 14 13 13 11 10 10 10 11 11 12 12 12 12 13 15 15 11 5 3 3 5 10 15 16 16 17 22 30 27 16 14 16 16 15 13 14 13 10 7 4 8 15 18 20 24 27 26 20 12 7 10 12 15 19 15 8 4 6 9 10 10 9 8 8 7 6 3 1 2 1 1 1 3 4 3 2 2 2 1 3 3 4 6 10 13 14
15 14 13 12 11 9 8 8 8 8 8 10 11 11 9 10 11 14 15 11 5 1 2 4 5 3 2 4 16 24 18 13 14 16 16 17 16 13 13 14 11 5 8 12 11 12 15 17 15 15 15 10 12 9 5 6 5 4 8 10 10 10 10 8 7 7 5 3 2 1 1 1 0 2 4 5 3 2 3 4 4 5 4 4 6 10 12 14
13 12 11 9 8 7 7 8 8 8 8 8 9 10 9 8 7 8 11 13 13 12 12 12 7 5 5 10 20 16 9 11 13 14 16 17 18 15 15 16 13 10 13 14 15 17 18 19 20 23 22 14 11 9 6 6 7 12 15 14 13 11 7 5 5 4 2 1 2 1 1 1 1 1 3 5 2 2 4 4 4 6 5 3 6 9 11 13
11 9 7 6 5 5 6 7 8 8 8 7 7 7 7 7 8 6 6 8 10 12 15 16 15 14 15 22 28 15 7 11 13 15 16 15 18 18 19 18 13 13 15 18 20 22 23 24 21 17 14 14 14 15 15 14 16 20 18 13 8 6 5 3 3 2 0 1 2 1 1 2 1 1 3 4 3 3 4 3 4 6 6 3 5 7 11 13
10 8 6 3 2 2 3 4 5 5 5 6 6 6 5 6 9 11 9 8 5 4 2 5 9 10 17 29 30 16 11 13 12 17 18 17 20 21 23 20 16 16 15 17 19 16 16 13 8 9 11 15 12 9 13 18 20 16 11 8 4 4 5 5 1 2 1 1 3 2 3 4 3 4 4 2 3 5 5 4 4 5 5 3 4 6 9 12
10 8 7 5 3 1 2 3 4 4 4 5 6 6 6 5 6 10 12 11 10 8 4 5 7 5 11 24 22 14 14 14 12 14 18 21 22 22 23 22 21 21 19 21 20 16 15 8 9 18 18 13 8 9 15 16 13 6 2 5 2 5 5 6 5 1 2 1 2 1 2 5 6 7 6 2 3 5 5 4 2 3 4 3 4 6 9 11
9 8 8 7 6 4 3 4 5 5 5 6 7 9 8 6 6 7 9 10 11 14 12 13 12 11 17 19 16 15 15 14 11 10 14 18 20 20 21 21 22 23 22 25 24 22 22 17 20 26 20 16 15 16 13 6 5 2 2 3 2 3 2 4 6 4 0 1 2 2 0 5 7 8 7 4 4 4 5 4 1 2 4 3 5 7 9 11
9 9 9 8 7 5 5 6 7 6 6 6 7 9 10 11 9 8 8 9 10 10 10 12 11 14 22 18 12 15 14 13 14 12 12 11 13 15 15 16 17 18 18 18 18 17 15 12 18 21 16 17 16 10 4 3 3 3 1 3 4 3 2 6 3 6 3 3 3 3 0 5 6 7 7 6 4 4 4 3 1 2 3 4 6 8 10 11
10 10 9 8 8 8 10 10 10 9 8 6 5 4 6 10 11 10 11 12 14 11 9 10 10 14 17 12 11 15 15 15 15 14 13 10 9 8 8 10 11 12 12 13 12 10 7 7 15 19 13 9 6 4 4 4 4 4 3 1 3 3 3 4 0 5 6 2 2 2 2 3 3 4 5 8 6 5 6 4 3 3 4 6 9 9 10 11
9 10 9 10 13 15 15 14 13 12 11 11 10 6 4 6 7 8 10 12 14 14 15 14 11 15 15 9 10 15 18 16 12 11 12 12 10 8 4 4 8 10 10 10 8 7 8 9 11 12 12 9 4 3 3 4 3 4 3 2 2 1 1 3 2 6 9 3 2 1 3 5 6 7 5 10 8 7 8 6 4 4 6 9 10 10 10 12
9 9 7 8 12 14 14 13 13 13 14 17 19 18 14 9 6 4 3 2 3 6 11 12 8 9 11 10 9 14 18 16 11 9 8 9 10 11 8 4 5 6 6 7 7 8 8 9 7 4 7 8 6 6 3 0 1 1 2 2 3 3 2 2 2 4 9 4 3 2 3 7 9 11 8 9 11 10 10 8 6 5 7 9 9 9 10 11
8 9 8 4 5 7 8 9 9 10 11 14 17 21 21 20 19 16 15 13 12 8 5 12 13 6 3 10 9 12 17 17 13 7 4 5 7 8 10 9 7 6 5 4 8 13 9 7 8 4 5 6 5 5 2 4 4 4 2 2 2 3 4 4 4 4 7 4 4 1 3 7 8 10 9 8 12 14 12 9 8 7 8 9 9 9 10 11
8 9 9 6 3 2 3 4 4 6 7 9 9 9 9 12 15 19 29 33 28 20 10 13 18 13 8 11 9 10 15 16 15 11 5 3 4 4 5 5 8 12 9 2 4 10 10 7 6 2 2 5 4 3 3 4 3 3 3 2 3 2 4 4 3 5 9 4 4 2 3 8 8 9 12 10 9 14 14 11 11 8 7 9 9 10 11 12
8 9 10 11 8 6 6 5 4 4 5 5 4 3 2 3 6 11 24 30 26 24 20 17 16 16 16 17 13 9 12 16 16 16 12 7 5 5 7 6 6 10 8 3 2 6 9 8 3 2 4 5 4 4 1 4 2 1 2 2 2 1 4 5 3 5 9 5 4 3 6 10 9 8 12 10 6 12 15 14 11 9 6 8 9 9 11 11
8 9 11 13 14 15 15 16 16 12 9 7 7 9 11 13 15 16 19 18 17 20 21 21 19 16 15 17 17 12 14 18 17 18 16 14 13 10 12 14 8 4 6 5 4 5 7 5 4 5 3 1 2 5 3 5 4 3 0 0 2 3 5 6 3 5 8 4 4 5 7 10 9 7 9 7 8 10 12 13 10 8 7 8 8 9 10 11
7 8 10 13 16 17 18 19 19 16 15 14 14 16 17 17 17 18 18 14 13 15 16 18 21 20 15 14 15 16 20 19 17 21 19 15 16 14 13 14 8 4 7 7 5 5 5 2 5 3 2 3 4 6 6 5 4 3 3 3 2 4 3 4 4 7 8 2 3 5 4 6 7 6 6 3 6 8 9 11 10 9 10 10 10 10 11 12
7 6 8 11 13 13 12 12 10 9 11 12 11 11 11 11 12 12 13 10 7 10 13 14 18 20 18 13 11 14 21 19 16 22 22 16 11 10 9 9 7 6 7 8 10 9 4 3 5 2 4 4 2 5 6 5 3 3 2 4 1 4 2 4 5 8 7 1 2 5 3 4 5 5 5 4 2 5 6 8 11 11 11 11 11 11 11 12
7 6 6 8 9 8 6 4 3 3 6 8 8 7 6 6 6 6 6 7 4 7 11 10 12 16 17 16 8 6 12 17 19 21 21 19 11 5 6 7 6 4 1 4 10 9 3 3 3 2 5 6 5 4 4 3 2 4 1 4 2 3 5 5 6 6 4 3 4 6 5 4 5 4 6 4 5 5 6 8 13 14 13 12 12 12 11 12
7 6 5 5 7 6 5 2 2 3 6 5 5 5 3 3 3 4 2 5 3 7 9 7 8 11 15 18 9 1 4 9 15 19 17 18 13 6 5 6 5 4 3 3 5 4 1 4 5 4 3 5 6 3 0 3 4 2 1 5 3 2 2 3 5 3 3 2 4 5 4 3 6 5 6 5 6 7 8 10 12 13 12 12 12 12 12 13
7 6 5 4 4 6 6 6 6 6 5 3 3 3 2 2 4 3 2 5 4 5 6 6 6 8 12 17 12 3 1 5 8 17 17 15 14 10 6 4 4 3 2 3 4 2 1 5 8 6 5 5 5 2 2 4 4 1 2 5 2 1 1 2 3 3 1 2 4 5 4 1 4 5 6 4 5 7 7 8 10 9 9 11 12 12 12 13
7 6 5 4 2 3 4 5 6 6 5 4 3 1 1 3 3 1 4 4 3 4 4 4 4 7 7 12 17 11 6 6 4 12 16 11 12 14 11 4 4 2 1 4 3 1 2 4 4 4 6 4 2 2 2 4 1 3 3 4 1 2 2 1 3 2 1 2 3 6 3 1 4 6 5 4 4 6 6 6 8 9 8 9 11 11 11 11
7 7 6 4 3 1 1 3 4 3 3 3 1 1 1 2 2 2 5 3 3 2 3 4 3 7 7 6 15 16 11 10 6 8 12 10 9 10 10 5 6 6 6 7 5 2 1 1 1 2 4 2 3 4 3 4 0 1 4 3 1 2 3 2 3 2 2 4 1 6 3 2 4 6 4 2 2 5 6 6 7 8 7 8 9 9 9 10
6 6 6 5 4 3 1 0 1 2 2 2 2 2 2 2 2 4 4 0 1 2 3 5 4 8 10 4 9 14 10 9 9 8 10 12 12 11 10 5 5 6 6 9 6 1 1 0 1 1 1 3 4 4 2 4 2 1 4 4 3 3 4 3 2 3 3 3 3 5 2 2 2 5 3 3 4 5 4 4 6 6 5 6 6 8 9 10
6 5 6 6 5 4 2 0 1 3 2 3 4 4 3 2 4 6 2 2 0 3 4 4 3 6 8 3 4 10 7 7 11 10 8 10 12 13 9 4 4 5 4 6 5 3 3 2 2 2 3 4 3 2 1 1 0 2 3 3 2 3 3 3 4 4 4 2 4 3 1 2 2 5 5 5 5 6 6 4 6 6 4 4 5 7 8 10
6 5 5 6 6 5 4 1 2 4 3 4 5 3 2 2 4 3 1 3 1 2 2 2 3 4 5 3 3 6 4 5 9 8 4 3 6 8 6 2 1 4 4 4 3 4 2 1 4 4 3 4 3 2 3 3 3 4 3 4 3 2 4 3 4 3 1 4 3 0 1 0 4 7 6 5 6 8 8 7 6 6 5 5 7 8 9 10
6 5 6 7 6 6 5 3 3 5 4 5 4 0 4 5 1 1 2 2 0 1 0 1 3 2 2 4 4 4 3 2 6 6 2 1 4 3 3 3 2 1 2 1 2 4 3 3 6 4 3 6 5 3 2 3 3 4 2 3 3 2 4 3 4 3 3 5 3 1 1 2 4 4 5 7 8 9 9 7 6 7 7 8 10 11 12 12
6 6 7 7 6 6 5 4 3 5 5 4 2 2 6 4 1 1 2 3 1 1 1 1 2 3 4 4 2 3 2 1 4 5 3 3 5 4 4 5 6 3 2 2 2 2 2 3 4 3 3 6 5 3 1 1 2 3 1 3 3 3 3 1 3 1 3 5 4 3 1 2 2 2 4 7 7 7 7 7 8 10 10 10 12 13 13 13
5 6 6 7 6 5 5 4 4 5 5 4 3 5 5 2 3 2 2 4 2 1 1 1 3 5 5 4 2 1 1 1 3 5 5 4 3 2 3 4 5 4 2 2 1 0 2 2 3 2 2 3 3 1 1 3 0 2 1 3 2 2 3 1 2 3 1 3 4 2 2 4 3 3 4 4 5 7 8 9 11 12 12 11 14 15 14 14
4 4 6 7 6 5 5 3 4 5 4 3 5 5 2 3 3 3 3 2 2 2 2 2 4 5 3 4 3 3 1 2 3 4 4 3 2 1 1 2 3 3 3 3 0 1 2 2 3 3 2 2 2 2 1 1 1 1 3 2 1 3 5 3 0 1 4 1 4 2 3 5 3 3 5 5 6 8 9 11 14 14 13 13 14 16 16 15
3 3 6 7 7 6 5 3 4 4 2 2 6 2 2 1 1 2 1 1 2 3 4 2 1 2 1 1 3 4 2 2 2 3 2 1 1 1 0 1 2 2 2 2 1 0 1 2 4 2 1 2 3 3 3 1 1 2 2 1 2 3 4 3 0 4 5 1 4 3 3 6 3 2 5 5 6 8 8 11 13 14 14 14 14 15 16 16
3 2 5 8 8 7 4 3 3 2 1 5 5 1 1 1 1 1 1 1 2 2 4 3 1 0 2 2 1 4 3 2 2 3 1 1 1 2 2 0 1 2 3 2 1 1 1 2 4 0 1 4 5 2 3 3 1 3 3 3 2 3 1 2 2 2 3 3 5 5 5 4 3 3 3 3 7 8 8 8 9 12 14 12 13 14 15 15
3 1 5 9 7 7 5 3 1 1 4 6 3 2 1 1 1 1 1 1 2 2 2 3 1 1 2 3 1 2 2 1 1 2 1 0 1 1 2 0 1 1 4 3 2 1 0 0 3 3 1 3 4 2 1 3 2 2 3 2 2 3 2 1 2 1 0 2 4 5 5 3 5 5 5 6 8 8 7 5 6 12 13 11 13 15 15 15
3 1 4 8 7 6 5 3 2 3 5 4 3 3 1 1 2 2 2 1 1 1 1 3 3 2 2 3 1 0 1 1 2 2 0 0 1 1 0 1 1 1 2 2 2 0 1 1 3 4 3 2 1 0 2 2 1 2 3 3 2 2 2 1 1 1 3 2 1 2 5 6 6 4 6 7 7 7 8 6 8 12 12 11 13 16 16 16
3 1 3 6 6 5 4 5 8 7 5 3 2 1 0 2 4 3 2 2 1 1 1 3 4 3 3 2 1 2 1 2 2 1 1 1 1 0 0 1 1 1 1 1 2 1 0 1 2 4 4 1 2 2 1 2 1 1 1 1 2 2 2 3 2 3 1 2 3 2 4 9 6 3 5 6 6 8 10 9 11 14 14 14 16 19 18 17
3 1 2 5 6 4 3 6 8 6 4 3 2 2 2 3 3 3 3 2 1 1 2 3 3 2 3 2 1 2 2 1 1 1 1 2 1 1 2 2 1 1 2 1 1 1 1 3 0 3 3 3 4 3 0 1 1 2 1 1 2 3 4 4 2 3 0 1 1 3 2 8 6 4 5 7 8 9 10 10 14 17 16 17 21 23 19 16
2 1 1 4 5 2 4 5 5 5 3 3 3 4 3 2 2 2 2 1 1 1 2 1 1 2 1 1 2 2 1 2 2 1 1 2 1 2 3 3 2 2 2 0 1 1 1 3 2 4 3 3 4 3 1 1 1 1 2 2 2 2 3 4 4 3 2 3 2 3 2 8 7 4 5 8 10 10 11 13 15 18 20 22 24 24 20 18
2 2 2 4 5 1 3 3 1 1 1 2 3 3 3 2 2 2 2 1 1 2 2 1 1 2 2 1 3 2 1 1 1 0 1 2 2 2 3 2 2 2 2 1 2 2 1 1 2 3 5 5 6 5 4 3 1 2 3 2 2 3 6 4 2 3 0 5 6 4 4 8 6 4 5 6 7 10 15 17 16 18 22 25 26 23 21 22
1 1 2 5 6 2 4 4 6 5 3 3 4 2 2 3 2 2 1 1 1 2 2 2 2 4 3 2 4 2 1 1 0 0 1 1 2 2 3 2 2 2 3 3 3 3 2 1 2 3 1 2 3 3 3 2 1 2 1 2 3 4 6 3 1 3 2 4 5 5 6 7 7 7 7 7 6 9 18 22 22 22 25 27 26 24 23 24
1 1 1 4 6 6 8 6 8 9 5 4 4 2 2 2 0 1 2 1 1 2 3 3 4 4 2 2 3 2 2 2 1 1 1 2 2 1 2 2 2 2 4 4 2 2 2 1 3 5 5 5 5 5 4 2 1 3 3 3 5 5 5 5 4 3 4 3 3 8 8 8 14 14 9 8 6 7 15 23 25 26 28 28 26 25 26 26
1 1 0 1 4 7 10 7 7 9 7 6 4 3 4 2 0 1 1 1 1 3 2 2 3 3 2 3 3 1 1 2 3 0 2 3 1 1 2 3 2 2 3 3 2 2 3 1 3 5 7 8 7 6 3 2 3 6 5 6 7 7 5 6 5 6 5 4 4 9 6 7 16 17 11 10 9 9 14 21 24 27 28 27 25 26 27 26
1 1 1 3 1 1 5 4 5 9 8 5 3 3 4 3 2 3 3 2 2 4 2 1 2 4 5 6 4 2 1 2 2 2 1 1 1 2 2 2 2 2 3 3 2 2 3 2 4 3 6 9 8 9 5 3 5 6 7 9 8 9 10 12 13 9 8 7 10 5 3 8 15 16 13 16 16 14 18 24 26 28 27 24 25 26 27 26
3 3 3 4 2 3 4 4 8 12 8 4 3 2 5 6 6 4 3 3 0 3 3 2 6 6 6 5 4 4 3 2 2 4 3 3 2 1 1 1 2 3 2 2 1 1 3 2 2 1 5 9 10 9 6 5 5 6 10 12 10 11 14 15 14 10 10 14 16 11 9 13 18 18 18 27 30 26 27 30 29 27 24 23 24 25 26 27
3 3 4 6 5 6 7 6 8 8 4 2 2 2 4 7 7 4 4 6 3 2 5 5 6 6 7 6 5 4 7 7 3 3 5 5 2 3 3 2 3 3 1 1 0 1 1 3 0 3 4 8 7 5 1 4 5 8 13 12 10 11 12 12 12 8 9 14 16 13 13 15 22 23 21 29 34 27 25 27 26 24 24 23 24 25 26 28
3 3 5 6 4 4 4 4 4 4 1 1 3 4 4 6 9 7 4 6 6 4 7 9 6 4 4 4 5 7 8 7 3 1 6 7 3 5 5 4 7 6 1 2 1 2 2 2 2 5 3 6 4 5 5 4 5 9 17 14 11 11 8 8 8 8 10 11 9 7 7 11 17 16 13 19 23 20 20 24 25 26 26 24 24 26 29 29
4 4 6 5 2 2 4 2 2 3 2 3 4 6 4 5 10 11 4 4 7 6 7 10 9 7 4 4 9 11 8 5 2 1 4 4 3 4 4 5 9 7 5 5 2 1 3 2 1 2 1 6 5 4 5 7 6 7 11 8 10 11 7 5 6 8 11 10 5 6 9 10 8 6 5 11 14 15 21 25 25 27 27 26 28 29 30 28
Wind_Direction
115 117 114 114 114 114 115 113 110 103 90 78 72 72 76 97 117 132 147 155 144 101 102 102 94 86 81 76 71 70 70 78 93 82 63 40 28 34 51 65 69 75 74 72 95 109 117 110 106 113 107 91 80 79 86 83 70 77 77 65 97 128 123 183 184 168 135 151 171 139 177 174 122 352 124 121 114 125 129 120 73 18 353 351 5 7 354 349
113 115 115 116 117 118 117 112 106 92 82 75 77 82 84 88 92 100 107 117 245 260 148 126 106 92 83 77 70 67 62 71 83 67 54 44 52 62 65 82 85 85 87 86 89 97 113 111 112 127 105 81 66 77 85 65 53 61 92 80 100 183 155 152 158 151 129 141 141 112 123 128 87 12 144 147 135 144 141 110 231 358 30 18 16 8 356 351
112 114 116 118 120 119 115 107 95 80 72 71 86 95 89 80 74 73 68 62 42 352 211 195 156 115 89 81 66 58 52 63 63 46 44 56 64 71 70 79 90 98 92 89 90 90 99 105 111 114 96 77 61 78 76 53 51 53 79 79 162 181 129 89 117 136 140 139 134 120 113 98 80 65 160 167 144 140 151 325 284 18 27 26 16 7 359 353
111 114 117 119 119 114 107 94 80 70 68 78 100 101 84 66 59 61 60 62 61 62 72 207 211 221 227 265 351 30 42 53 38 22 32 54 59 71 72 77 84 84 85 91 96 94 95 100 106 102 89 71 57 73 58 38 65 47 59 109 173 158 117 87 105 128 144 142 139 135 124 105 85 53 140 165 143 317 247 239 329 10 9 14 10 7 1 352
111 114 116 116 114 107 97 86 74 70 72 83 99 91 59 42 47 63 72 73 69 67 65 70 174 223 236 255 277 295 9 42 18 15 33 48 55 62 66 76 72 61 60 82 96 98 103 105 103 91 80 58 47 65 43 47 83 68 50 106 143 146 121 108 108 119 145 149 147 142 120 123 152 53 99 165 178 254 227 113 7 8 358 1 2 4 359 349
109 111 113 113 108 100 91 83 77 78 81 82 83 76 64 61 67 78 98 98 81 75 73 73 77 92 168 213 247 263 85 81 3 21 35 43 49 49 56 60 54 49 41 68 105 111 115 108 99 85 74 60 50 62 52 57 93 97 63 79 106 129 123 121 110 109 140 139 132 130 80 134 179 128 74 200 221 230 117 79 44 4 344 347 354 358 352 345
106 109 112 112 105 98 90 84 85 89 86 80 76 72 69 69 72 75 98 128 107 86 81 83 85 86 88 92 103 96 83 71 29 34 37 44 49 45 54 59 59 59 57 87 107 110 108 101 95 87 81 76 67 77 78 76 89 100 88 75 96 114 115 119 118 116 135 128 112 103 122 127 139 153 257 277 298 325 198 116 55 337 318 337 347 348 345 344
104 108 112 113 109 101 90 86 92 96 89 78 73 70 70 69 68 69 76 101 154 118 68 91 103 101 90 85 84 76 63 43 39 48 45 49 55 53 58 69 84 100 91 96 102 102 98 95 93 86 75 77 99 105 92 81 69 67 113 121 107 111 113 118 123 122 123 113 96 137 159 127 113 246 258 262 283 302 244 211 285 293 304 331 338 339 340 342
99 104 110 115 114 103 89 83 91 99 92 80 75 74 74 69 66 67 68 67 76 81 353 102 145 160 136 96 77 65 40 24 42 53 57 58 60 63 66 69 72 88 99 96 99 101 98 96 98 105 105 104 106 104 101 87 44 69 129 128 120 118 118 121 123 123 118 95 77 152 173 122 182 284 268 261 269 279 252 235 264 278 282 313 331 335 337 340
94 98 106 113 115 103 85 80 87 93 88 78 74 78 78 67 59 70 80 75 75 84 80 86 109 114 134 115 88 70 21 34 50 55 65 64 64 71 73 74 72 77 93 95 93 91 95 101 104 108 107 100 91 69 65 102 117 125 123 117 119 123 122 120 124 119 116 41 30 155 221 250 234 284 265 270 278 242 241 237 265 275 267 296 328 330 336 338
85 89 97 107 113 104 86 83 90 89 79 69 69 81 84 66 54 68 117 113 99 101 87 82 91 92 100 93 81 72 37 54 60 59 65 67 69 70 70 76 81 84 92 93 91 93 98 104 106 101 90 90 90 74 83 110 123 124 118 103 98 115 111 92 143 145 154 277 329 266 258 304 276 216 245 275 296 246 242 261 278 265 259 291 321 327 336 335
69 68 72 78 96 109 97 97 102 93 72 62 63 77 92 80 64 69 98 123 132 150 131 83 91 88 81 73 68 63 54 58 64 64 66 69 69 69 70 75 81 85 91 92 90 100 110 114 112 102 105 112 104 80 105 123 123 122 114 95 45 56 61 11 351 218 239 263 296 311 344 326 278 231 231 287 287 247 249 284 299 258 247 284 310 327 334 329
53 49 45 36 34 59 105 116 113 99 76 71 72 82 100 98 75 73 83 91 80 76 89 95 101 121 80 64 57 60 60 57 66 72 72 71 72 72 73 74 79 82 84 86 85 89 99 117 123 109 111 114 109 114 128 129 122 122 77 95 50 16 10 354 17 308 234 260 294 341 340 295 270 242 220 258 274 249 251 261 315 263 240 275 304 326 329 323
44 40 34 25 28 45 89 118 115 99 84 92 91 89 96 96 97 90 84 89 79 71 77 88 93 97 86 73 57 60 62 61 71 85 80 74 75 75 76 78 80 83 85 85 84 85 91 104 108 99 92 95 112 123 121 112 104 107 6 52 46 50 319 318 19 19 133 247 277 95 129 258 274 260 215 223 256 248 253 232 301 284 241 269 300 322 321 318
43 40 34 25 28 53 97 112 112 98 86 99 104 95 90 89 96 91 81 88 86 78 80 84 84 82 80 74 56 56 64 71 74 80 82 80 79 78 78 81 84 86 88 89 90 90 91 100 93 83 83 100 114 117 79 13 32 48 50 339 349 81 305 302 12 42 37 260 252 109 243 264 276 269 216 214 243 244 259 236 251 281 240 272 302 313 312 313
46 44 40 42 54 77 95 101 104 94 82 85 91 98 95 88 86 85 87 85 79 77 81 83 76 75 76 63 46 51 57 62 63 68 73 75 77 77 77 79 84 88 89 90 94 98 97 94 81 72 74 91 93 71 46 28 9 2 81 103 333 43 2 318 351 19 9 291 257 162 242 275 272 285 223 212 232 241 259 256 241 266 269 289 303 306 305 305
50 49 54 73 80 84 90 95 98 91 85 81 75 80 110 101 93 96 93 84 78 73 77 86 82 71 67 49 37 39 41 49 58 69 70 68 67 68 84 104 95 94 98 91 83 88 87 80 83 70 55 50 25 51 59 14 346 327 24 78 325 356 339 320 264 343 9 22 308 251 219 251 265 306 276 216 227 240 249 266 266 279 289 295 299 299 299 298
53 51 59 90 95 90 89 89 88 88 88 86 83 83 86 89 103 125 122 102 86 70 67 64 65 76 55 29 30 33 36 42 48 61 65 64 67 68 73 100 119 118 108 85 50 51 68 67 83 87 39 35 19 43 82 142 158 245 8 44 329 328 278 312 272 330 7 5 326 324 247 268 279 306 298 224 224 235 244 266 276 287 290 289 289 289 293 297
52 51 49 80 121 102 83 74 80 91 94 95 93 89 87 87 86 83 81 83 73 68 58 39 48 102 53 16 34 44 42 43 40 46 61 54 62 72 70 71 98 121 100 65 22 30 54 60 58 60 15 2 358 37 122 175 162 180 175 173 256 294 282 281 261 314 0 336 299 293 255 285 291 299 298 257 229 230 245 265 267 275 287 285 287 287 292 302
52 53 47 59 109 127 65 54 90 117 116 117 111 101 98 86 77 67 67 71 69 70 83 64 64 81 63 35 47 53 47 49 46 46 46 36 51 61 56 65 80 72 56 35 359 26 59 71 47 62 306 309 293 289 232 197 175 173 155 198 233 253 285 275 260 331 2 347 270 284 300 293 289 281 288 286 242 226 238 254 260 267 287 293 295 296 299 306
56 60 57 65 82 96 87 75 91 131 141 157 173 179 190 94 90 81 72 70 68 68 68 66 66 64 54 44 45 53 55 59 58 54 49 46 63 42 29 46 68 48 18 353 57 38 64 72 23 272 244 264 280 299 241 153 119 111 167 224 296 313 286 275 252 325 5 12 266 340 345 300 293 285 283 282 234 223 232 242 255 260 280 299 302 307 308 310
61 69 72 79 90 96 96 91 86 86 93 107 114 108 106 102 103 100 91 81 68 61 56 56 57 55 52 45 42 47 56 54 46 45 47 55 70 66 51 56 65 39 352 10 69 41 54 59 321 295 269 263 3 1 59 110 82 39 99 113 355 332 300 296 289 325 1 11 279 344 347 301 299 296 286 266 225 232 239 242 256 263 276 301 310 317 315 313
65 80 88 97 103 102 101 97 89 84 81 81 86 92 96 99 100 94 94 94 72 53 44 45 45 42 43 39 37 43 52 48 25 25 32 45 63 63 60 59 56 42 16 30 87 79 66 8 312 318 357 42 18 9 45 69 55 42 48 62 326 324 344 304 303 332 342 353 272 318 322 296 313 319 320 306 228 243 248 245 256 265 275 296 307 313 312 312
66 89 110 116 119 116 107 97 90 83 69 60 65 79 91 95 102 101 92 94 82 44 33 35 33 32 31 24 25 43 53 49 24 20 25 31 49 51 55 60 52 52 37 51 81 88 104 281 308 3 49 71 61 12 39 60 26 359 54 99 347 316 294 249 284 327 335 27 325 338 349 312 336 337 319 344 298 256 251 252 261 267 277 288 296 306 309 312
66 87 127 141 146 146 131 100 80 51 26 30 46 61 86 101 110 122 93 83 74 12 17 26 21 22 19 13 18 53 56 48 30 21 24 30 39 62 62 50 47 60 50 62 76 83 88 309 322 34 39 66 91 36 33 83 37 337 272 139 153 259 249 267 304 330 8 33 351 23 39 303 320 328 280 313 345 292 277 280 278 280 284 284 293 310 315 317
69 80 116 157 180 189 199 233 284 300 328 1 29 42 77 121 125 143 108 72 35 340 359 13 8 15 14 6 4 89 58 36 27 23 27 30 31 74 73 26 46 94 180 143 85 92 54 13 43 80 64 59 67 49 262 118 81 11 202 157 152 188 233 308 333 8 55 350 320 42 81 268 313 322 273 303 330 302 300 301 295 296 293 290 299 312 317 319
71 74 91 136 189 210 224 247 265 276 292 329 1 25 85 135 127 132 70 51 17 326 350 356 358 17 16 11 17 94 40 344 11 21 29 34 35 69 82 10 47 77 184 138 72 34 338 12 26 41 58 60 49 13 247 133 100 345 161 140 132 119 126 332 19 49 66 286 333 20 81 194 297 283 270 307 324 313 317 311 314 317 301 297 304 309 314 318
66 69 75 88 141 201 225 246 257 265 268 270 304 2 133 155 159 128 80 74 342 325 359 348 6 18 13 27 40 69 54 12 27 8 15 36 40 62 80 71 117 106 10 120 118 324 4 13 5 23 41 46 41 275 218 143 98 279 169 140 175 157 141 107 65 47 309 47 350 326 15 80 272 274 301 348 338 311 304 286 302 316 308 303 303 306 312 315
56 59 58 60 75 116 214 235 241 245 253 243 224 181 159 169 206 31 80 105 311 341 12 342 347 352 346 28 39 46 47 39 46 3 15 45 38 57 85 89 115 101 43 74 129 187 46 40 293 76 57 11 265 256 205 161 238 257 139 105 29 69 81 76 71 60 21 53 311 286 345 42 280 285 310 354 290 270 269 263 279 295 302 305 309 316 320 322
43 44 41 42 47 40 46 174 214 208 206 194 177 156 103 95 97 58 59 146 319 325 325 344 336 339 351 19 22 23 36 35 24 15 36 58 51 61 91 89 80 88 41 45 78 144 341 58 268 80 73 280 275 288 243 195 228 116 93 51 25 24 44 56 40 70 62 14 263 260 328 63 289 284 253 218 220 213 210 255 272 274 290 307 324 335 335 336
40 39 33 34 39 33 36 64 184 180 173 165 165 146 114 55 67 89 93 248 299 334 342 2 351 357 14 53 15 0 12 18 12 20 35 43 41 41 57 59 31 52 30 19 33 351 351 30 318 302 300 305 318 341 359 142 85 80 79 61 52 333 14 36 352 32 68 303 266 259 326 102 206 265 248 231 236 211 188 209 243 254 275 308 331 338 334 334
38 41 38 39 41 38 46 78 160 167 168 158 160 163 127 40 28 95 252 308 322 329 7 353 332 13 20 37 25 346 349 5 8 31 46 29 40 29 31 63 7 33 15 343 355 355 346 312 315 313 315 346 9 5 1 19 42 66 66 62 68 344 9 21 333 7 54 259 258 247 349 174 228 244 244 244 246 227 209 205 218 240 270 302 322 328 325 326
33 38 40 38 38 36 48 81 134 154 164 155 160 174 81 80 49 215 276 331 39 293 333 305 325 1 15 27 18 339 357 349 348 23 51 76 69 31 19 61 78 63 21 347 1 6 350 305 332 350 335 357 28 62 8 331 348 23 44 55 71 64 40 351 302 333 305 275 269 229 250 293 282 264 231 230 235 223 219 221 229 250 280 304 314 317 317 320
30 38 33 27 33 35 48 79 126 150 160 157 156 52 64 78 181 187 269 252 226 329 359 5 344 14 40 48 343 316 41 5 337 17 15 34 51 10 344 11 25 55 83 71 65 40 36 318 340 27 333 349 28 81 118 212 319 321 212 126 97 110 106 259 256 243 282 292 293 284 240 212 255 282 231 232 250 244 235 241 245 258 278 296 303 307 310 316
29 38 27 22 33 36 51 80 131 145 161 169 79 64 83 145 206 163 201 225 223 324 340 28 54 48 19 357 320 332 77 315 356 39 25 39 74 16 346 331 354 41 84 66 31 47 80 271 293 358 324 351 27 336 124 125 307 278 178 83 66 148 135 132 195 186 205 316 301 272 230 217 219 278 287 298 298 267 251 253 253 262 278 290 295 303 311 317
28 37 25 24 32 42 55 77 136 142 163 156 65 63 143 196 195 168 168 158 142 155 147 39 59 69 1 321 338 8 33 315 11 49 28 44 144 216 353 280 322 28 82 96 71 344 47 273 291 357 348 24 34 318 345 97 300 352 48 42 194 152 117 101 263 11 68 30 287 284 281 292 327 322 320 347 322 287 272 264 256 261 276 285 292 305 315 320
21 41 30 28 31 39 53 71 120 146 182 103 81 95 198 198 168 171 132 84 146 135 112 102 46 77 198 283 318 326 341 317 360 54 44 15 140 189 231 280 305 360 34 98 137 288 78 271 298 24 51 339 347 324 335 67 143 53 61 205 185 97 84 94 53 353 33 3 284 327 303 297 337 324 313 324 295 283 276 265 263 265 271 279 293 309 315 318
17 41 26 27 29 31 46 75 104 145 104 73 86 135 178 162 223 177 88 73 135 92 90 131 164 119 186 171 274 297 332 332 349 48 74 295 73 170 178 333 322 350 355 31 81 359 51 299 307 341 167 314 330 341 333 333 49 90 120 165 120 85 30 27 61 17 11 327 295 314 305 273 224 236 274 252 244 258 267 273 274 265 265 279 297 308 310 313
13 49 24 20 24 30 38 58 98 116 72 77 116 185 139 158 198 135 138 100 112 97 102 171 155 67 175 167 178 276 339 32 52 57 107 154 40 195 183 129 223 332 355 32 100 227 109 80 290 278 252 313 342 39 303 305 339 56 77 11 14 108 143 24 68 115 70 317 303 323 327 283 232 219 195 205 227 238 250 269 265 257 263 282 298 307 307 305
13 69 23 12 19 28 30 45 60 67 73 87 158 177 100 165 158 134 143 125 112 125 166 183 146 114 192 211 214 235 39 104 134 107 192 173 111 214 331 84 192 315 351 45 91 195 12 89 261 293 332 315 313 24 195 203 305 3 36 18 11 69 89 78 33 89 119 131 227 323 314 280 252 213 183 208 236 228 221 235 253 260 270 281 297 312 310 301
20 42 1 4 18 19 23 51 49 57 87 97 118 133 80 140 136 122 121 113 98 104 143 152 138 138 165 178 220 197 89 68 118 124 208 192 141 182 48 108 162 324 350 58 57 22 345 99 230 291 334 284 241 275 198 183 231 218 105 119 143 119 81 72 336 318 84 135 169 157 284 277 262 211 196 219 241 234 225 230 252 268 277 283 300 316 314 302
29 44 355 2 7 3 47 60 40 45 95 102 76 97 119 129 127 122 119 118 116 92 96 113 105 111 144 140 152 169 129 97 134 115 197 206 189 183 152 127 129 89 101 106 339 249 156 91 42 273 267 248 269 287 234 227 224 161 192 218 123 119 110 114 215 266 95 119 139 115 263 273 261 220 223 247 261 258 248 248 262 276 284 290 303 316 317 307
37 46 354 4 1 14 81 69 30 26 61 91 88 97 108 115 126 138 138 133 160 132 85 92 86 87 162 186 128 140 163 176 177 164 209 226 229 182 168 148 158 132 100 118 257 204 120 68 18 294 294 318 312 306 328 7 50 141 252 227 144 143 130 138 173 180 154 184 151 102 261 269 269 255 248 256 264 267 262 262 272 285 294 301 309 317 320 317
53 48 18 11 356 336 122 115 117 76 71 99 82 78 83 80 99 134 172 178 158 152 120 125 154 123 143 125 104 136 196 166 175 206 184 193 194 179 172 170 184 167 141 172 151 149 203 59 61 360 347 346 344 345 342 344 8 234 250 214 163 115 101 109 115 74 295 217 160 141 242 255 267 301 295 272 274 277 271 274 283 290 296 306 314 317 318 320
59 59 20 22 11 47 120 134 143 139 155 126 101 111 95 69 79 109 135 147 135 144 127 116 140 126 115 94 77 65 23 62 157 275 109 186 211 182 168 186 208 175 165 168 139 145 187 184 122 99 46 304 298 303 285 280 271 251 235 201 196 142 129 143 94 82 261 238 157 169 232 260 282 295 292 282 289 289 284 291 298 299 303 311 315 315 316 319
101 126 16 27 32 68 90 109 129 131 155 148 117 157 141 96 172 135 106 115 118 126 113 110 138 121 89 97 90 56 341 360 33 118 172 210 230 217 184 186 178 156 153 151 142 123 118 216 198 171 187 209 223 237 217 142 187 243 228 206 200 184 151 119 105 162 203 186 195 228 242 284 291 283 283 289 287 278 283 292 300 305 311 314 313 313 315 319
116 126 291 51 41 65 75 81 107 122 151 158 136 161 157 135 192 143 151 217 178 155 120 81 150 159 163 160 131 124 260 351 7 132 193 201 215 327 240 199 170 184 174 163 190 108 91 287 234 191 221 239 243 249 223 135 230 236 229 216 199 193 166 149 188 205 154 125 254 253 233 254 273 276 286 293 286 277 281 286 294 302 307 308 309 311 314 318
118 181 152 121 122 87 71 61 107 114 120 132 120 135 143 144 169 177 189 198 180 183 170 5 244 214 188 173 151 143 168 358 329 232 183 173 181 27 353 247 213 208 193 182 227 126 114 250 236 186 249 264 262 262 243 210 243 240 232 229 208 191 185 197 218 201 154 198 248 252 188 229 261 276 282 280 278 279 282 287 292 295 298 302 305 308 312 317
109 120 128 125 137 139 112 118 130 117 105 94 95 135 159 169 188 201 165 124 189 234 186 218 255 226 191 173 134 137 183 187 239 238 194 155 184 146 93 256 216 201 190 165 241 100 123 245 238 157 290 281 270 270 246 217 252 262 248 236 214 206 205 212 229 210 191 233 253 263 270 268 269 270 270 275 280 283 285 287 288 288 292 300 303 306 310 314
152 145 147 127 106 105 113 127 131 115 85 67 121 177 175 171 187 207 177 158 168 211 184 210 245 209 181 168 141 174 210 185 163 225 183 154 167 195 194 201 165 153 156 152 85 54 137 258 288 76 329 286 281 309 278 201 229 261 265 248 208 211 222 223 235 224 215 245 257 264 275 275 269 266 268 275 280 284 284 284 285 288 293 299 300 303 308 311
185 178 163 136 105 104 130 148 136 111 87 193 175 178 184 198 195 175 174 201 192 174 192 199 185 147 142 160 188 229 234 200 170 202 180 175 190 195 205 197 160 147 150 179 163 101 147 255 10 63 351 284 297 357 339 286 261 263 273 263 211 199 213 219 224 206 202 224 240 253 258 257 264 271 273 273 275 277 276 278 285 292 296 298 297 301 306 309
185 175 175 157 118 148 168 163 99 114 191 211 176 171 192 222 195 167 155 245 216 202 217 199 163 123 112 183 221 238 237 206 191 144 166 188 201 173 176 179 165 157 159 160 143 135 150 148 129 101 299 275 288 334 324 321 319 274 268 250 194 191 208 233 242 219 207 203 191 214 232 243 267 281 265 266 268 268 272 278 285 290 295 298 298 301 305 307